STARLINK-1549, 46074

Orbit data source: Space-Track

STARLINK-1549, 46074 is a payload satellite owned by SpaceX/Seattle (US) in LEO that was launched on Fri, 07 Aug 2020 UTC via an FALCON 9 launch vehicle from the Air Force Eastern Test Range (AFETR). Payload-class satellites include a variety of spacecraft equipped with specific instruments for various scientific and technological missions. These include communications satellites like Starlink; space stations such as the ISS; scientific satellites like the Hubble; Earth observation satellites from companies like Planet Labs, Umbra, and HawkEye 360; GPS; miniature CubeSats for education and research; and military/defense satellites.

Loading next visibility...
Identifier
46074, 2020-055AZ
Orbit
LEO
Country
Flag of USUS
Related business
Manufacturer
SpaceX/Seattle
Mission
Partially operational Commercial Communications
Bus & Motor
STARLINK, Unknown motor
Mass
260 kg wet, ~248 kg dry
Launch date (UTC)
2020-08-07 (6 years ago)
Launch vehicle
FALCON 9
Launch site
Air Force Eastern Test Range (AFETR)
Object type
Payload
Rocket body
Debris
Shape & HBR
Box + 1 Pan, 10.1 m
Radar Cross Section
13.562 m², Large (>1 m²)

Expand to show TLE details & history
Last TLE update: 5 hours ago

TLE from 5 hours ago
0 STARLINK-1549
1 46074U 20055AZ  26263.60257174  .00033083  00000-0  83004-3 0  9999
2 46074  53.0472 270.7888 0004390  24.6590 335.4622 15.39736979339117
Epoch: 2026-09-20T14:27Z
TLE epoch observation values (Epoch: 2026-09-20T14:27:42.198Z)
Latitude
-0.00006°
Longitude
54.36854°
Altitude
445.052 km
Speed
7.648 km/s
True Right ascension
18h 03m 09s
True Declination
0° 00' 00"
Sunlit
Object was in daylight at epoch
Visualization orbit readout
Latitude
Unknown
Longitude
Unknown
Altitude
Unknown
Speed
Unknown
Apparent Right ascension
Unknown
Apparent Declination
Unknown
Sunlit
N/A
Visualization observer readout
Local Sidereal Time
12:12:38
Azimuth
Unknown
Elevation
Unknown
Doppler factor
Unknown
Orbital elements
Apogee altitude
450.159 km
Perigee altitude
444.166 km
Semi-major axis
6,825.299 km
Eccentricity
0.00044
Inclination
53.0472°
RAAN
270.7888°
Arg. of periapsis
24.659°
True anomaly
335.4413°
Mean anomaly
335.4622°
Eccentric anomaly
335.45175°
Mean motion
3.84911 °/min
Orbital period
93.53 mins
BSTAR
0.00083004
Loading maneuver chart data...
Computing Atmospheric mass density...

Documentation

Showing up to 5 results
|